Other Public Products
Issued by NWS Charleston, SC

Current Version | Previous Version | Text Only | Print | Product List | Glossary On
Versions: 1 2 3 4 5 6 7 8 9 10 11 12 13 14 15 16 17 18 19 20 21 22 23 24 25 26 27 28 29 30 31 32 33 34 35 36 37 38 39 40 41 42 43 44 45 46 47 48 49 50
049 FPUS82 KCHS 230912 OPUCHS TEST...KCHS/KSAV Gateway Observations...TEST National Weather Service Charleston SC 500 AM EDT TUE MAY 23 2017 NOTE: "fair" indicates few or no clouds below 12,000 feet with no significant weather and/or obstructions to visibility. SCZ050-WAZ558-NCZ071-TXZ119-213-PAZ071-DCZ001-FLZ074-172-MI076- NYZ176-178-MAZ016-IL014-TNZ027-NJZ106-GAZ044-MD014-231000- ...Gateway Observations for Charleston International... CITY SKY/WX TMP DP RH WIND PRES REMARKS Chas Airport PTCLDY 70 68 93 S6 29.84F Seattle CLEAR 63 49 60 NW5 30.02F Charlotte LGT RAIN 68 65 90 CALM 29.89S Dallas DFW CLOUDY 66 63 90 S5 29.87S Dallas Love CLOUDY 65 61 87 S5 29.88F Philladelphia CLOUDY 61 57 87 NW5 29.94R Wash National CLOUDY 61 57 87 N8 29.95S Baltimore CLOUDY 57 57 100 NW5 29.93F Miami PTCLDY 79 70 74 SE6 29.95F Detroit CLOUDY 57 49 74 SW5 29.90F Newark CLOUDY 58 57 97 N7 29.93S Laguardia CLOUDY 60 56 86 N10 29.93R J F K CLOUDY 60 58 92 N9 29.93F Boston Logan CLOUDY 53 52 96 N6 29.93S Ft. Lauderdale PTCLDY 78 69 73 S6 29.95F Chicago O`Hare CLOUDY 59 53 80 SW7 29.82F Chicago Midway CLOUDY 60 54 80 S9 29.83F Houston Bush CLOUDY 68 65 90 CALM 29.85F Houston Hobby CLOUDY 69 63 81 N7 29.85F Nashville CLOUDY 63 55 75 N6 29.85F Atlanta LGT RAIN 68 67 96 SW3 29.87S FOG $$ GAZ044-118-TXZ119-213-NCZ071-DCZ001-MDZ014-506-PAZ021-071-NJZ106- NYZ176-178-MAZ106-OHZ011-021-055-MIZ076-KYZ091-ILZ014-INZ047- MNZ060-ONZ431-231000- ...Gateway Observations for Savannah International... CITY SKY/WX TMP DP RH WIND PRES REMARKS Savannah Arpt CLOUDY 72 69 90 S8 29.86S Atlanta LGT RAIN 68 67 96 SW3 29.87S FOG Charlotte LGT RAIN 68 65 90 CALM 29.89S Dallas DFW CLOUDY 66 63 90 S5 29.87S Houston Bush CLOUDY 68 65 90 CALM 29.85F Wash National CLOUDY 61 57 87 N8 29.95S Wash Dulles CLOUDY 58 50 75 NW5 29.95F Baltimore CLOUDY 57 57 100 NW5 29.93F Philadelphia CLOUDY 61 57 87 NW5 29.94R Newark CLOUDY 58 57 97 N7 29.93S Laguardia CLOUDY 60 56 86 N10 29.93R J F K CLOUDY 60 58 92 N9 29.93F Boston CLOUDY 53 52 96 N6 29.93S Pittsburg CLOUDY 50 48 93 CALM 29.95F Akron CLOUDY 53 45 74 CALM 29.95F Cleveland MOCLDY 54 47 77 S6 29.95F Cincinnati CLOUDY 54 47 77 CALM 29.90F Columbus MOCLDY 49 49 97 NE7 29.92F Detroit CLOUDY 57 49 74 SW5 29.90F Chicago O`Hare CLOUDY 59 53 80 SW7 29.82F Minneapolis CLOUDY 52 44 74 NW5 29.80F Indianapolis CLOUDY 58 49 72 SE3 29.90F Toronto Canada MOCLDY 50 46 87 CALM 29.90F $$

USA.gov is the U.S. government's official web portal to all federal, state and local government web resources and services.